Location: Wanzleben
(52.0609°N, 11.4408°E)
Time: 18:06:24
(UTC+00:00)

COSMOS 2406 - Pass Details

Date: 26 January 2021
Orbit: 841 x 865 km, 71.0° (Epoch: 05 March)

Event Time Altitude Azimuth Distance (km) Brightness Sun altitude
Rises 19:43:52 0° 316° (NW) 3,458 7.2 -35.3°
Reaches altitude 10° 19:48:03 10° 287° (WNW) 2,511 6.4 -35.9°
Maximum altitude 19:50:05 12° 266° (W) 2,367 6.2 -36.2°
Drops below altitude 10° 19:52:07 10° 245° (WSW) 2,501 6.1 -36.5°
Sets 19:56:17 0° 215° (SW) 3,426 6.5 -37.2°
